| time (UTC) | temp F | wind direction | speed MPH | gust MPH | rain 1hr in | rain 24hr in | rain mn in | humidity % | barometer mb |
| 20260508133026 | 62 | 50 | 0.0 | 0.0 | 0.00 | 0.00 | 0.00 | 16 | 1008.5 |
| 20260508131520 | 58 | 50 | 0.0 | 0.0 | 0.00 | 0.00 | 0.00 | 16 | 1008.7 |
| 20260508130015 | 54 | 50 | 0.0 | 0.0 | 0.00 | 0.00 | 0.00 | 15 | 1008.5 |
| 20260508124514 | 50 | 50 | 0.0 | 0.0 | 0.00 | 0.00 | 0.00 | 14 | 1008.4 |
| 20260508123011 | 50 | 50 | 0.0 | 0.0 | 0.00 | 0.00 | 0.00 | 14 | 1008.4 |
| 20260508121506 | 51 | 49 | 0.0 | 0.0 | 0.00 | 0.00 | 0.00 | 13 | 1008.4 |
| 20260508120100 | 53 | 50 | 0.0 | 1.0 | 0.00 | 0.00 | 0.00 | 13 | 1008.2 |
| 20260508114557 | 55 | 51 | 0.0 | 1.0 | 0.00 | 0.00 | 0.00 | 13 | 1008.2 |
| 20260508113053 | 55 | 30 | 0.0 | 1.0 | 0.00 | 0.00 | 0.00 | 12 | 1008.2 |
| 20260508111547 | 59 | 2 | 0.0 | 1.0 | 0.00 | 0.00 | 0.00 | 12 | 1008.1 |
| 20260508110044 | 60 | 282 | 0.0 | 3.0 | 0.00 | 0.00 | 0.00 | 12 | 1008.0 |
| 20260508104613 | 61 | 323 | 1.0 | 2.0 | 0.00 | 0.00 | 0.00 | 12 | 1008.1 |
| 20260508103045 | 61 | 279 | 0.0 | 1.0 | 0.00 | 0.00 | 0.00 | 12 | 1008.1 |
| 20260508101541 | 61 | 283 | 1.0 | 3.0 | 0.00 | 0.00 | 0.00 | 12 | 1008.1 |
| 20260508100036 | 60 | 281 | 1.0 | 2.0 | 0.00 | 0.00 | 0.00 | 12 | 1008.0 |
| 20260508094541 | 60 | 280 | 0.0 | 3.0 | 0.00 | 0.00 | 0.00 | 12 | 1007.9 |
| 20260508093030 | 60 | 267 | 1.0 | 3.0 | 0.00 | 0.00 | 0.00 | 12 | 1007.9 |
| 20260508091527 | 60 | 266 | 0.0 | 2.0 | 0.00 | 0.00 | 0.00 | 12 | 1008.1 |
| 20260508090023 | 61 | 264 | 0.0 | 4.0 | 0.00 | 0.00 | 0.00 | 12 | 1008.2 |
| 20260508084518 | 61 | 283 | 1.0 | 2.0 | 0.00 | 0.00 | 0.00 | 12 | 1008.3 |
| 20260508083015 | 62 | 283 | 0.0 | 2.0 | 0.00 | 0.00 | 0.00 | 11 | 1008.3 |
| 20260508081512 | 63 | 277 | 1.0 | 2.0 | 0.00 | 0.00 | 0.00 | 11 | 1008.6 |
| 20260508080008 | 63 | 272 | 1.0 | 4.0 | 0.00 | 0.00 | 0.00 | 11 | 1008.5 |
| 20260508074505 | 63 | 274 | 1.0 | 6.0 | 0.00 | 0.00 | 0.00 | 11 | 1008.5 |
| 20260508073003 | 63 | 257 | 1.0 | 6.0 | 0.00 | 0.00 | 0.00 | 11 | 1008.5 |
| 20260508071603 | 63 | 264 | 1.0 | 4.0 | 0.00 | 0.00 | 0.00 | 11 | 1008.6 |
| 20260508070140 | 63 | 253 | 0.0 | 4.0 | 0.00 | 0.00 | 0.00 | 11 | 1008.5 |
| 20260508064607 | 64 | 260 | 2.0 | 5.0 | 0.00 | 0.00 | 0.00 | 11 | 1008.6 |
| 20260508063052 | 65 | 238 | 2.0 | 7.0 | 0.00 | 0.00 | 0.00 | 11 | 1008.5 |
| 20260508061554 | 65 | 238 | 3.0 | 8.0 | 0.00 | 0.00 | 0.00 | 11 | 1008.5 |
| 20260508060047 | 65 | 223 | 3.0 | 9.0 | 0.00 | 0.00 | 0.00 | 11 | 1008.6 |
| 20260508054543 | 65 | 310 | 4.0 | 9.0 | 0.00 | 0.00 | 0.00 | 11 | 1008.6 |
| 20260508053037 | 65 | 248 | 3.0 | 7.0 | 0.00 | 0.00 | 0.00 | 11 | 1008.7 |
| 20260508051531 | 65 | 263 | 3.0 | 7.0 | 0.00 | 0.00 | 0.00 | 11 | 1008.8 |
| 20260508050023 | 65 | 288 | 2.0 | 6.0 | 0.00 | 0.00 | 0.00 | 11 | 1008.9 |
| 20260508044518 | 65 | 240 | 3.0 | 8.0 | 0.00 | 0.00 | 0.00 | 11 | 1008.7 |
| 20260508043012 | 66 | 220 | 3.0 | 8.0 | 0.00 | 0.00 | 0.00 | 11 | 1008.7 |
| 20260508041508 | 66 | 278 | 3.0 | 6.0 | 0.00 | 0.00 | 0.00 | 10 | 1008.7 |
| 20260508040100 | 66 | 264 | 3.0 | 8.0 | 0.00 | 0.00 | 0.00 | 10 | 1008.5 |
| 20260508034554 | 67 | 253 | 3.0 | 8.0 | 0.00 | 0.00 | 0.00 | 10 | 1008.3 |
| 20260508033050 | 67 | 250 | 3.0 | 8.0 | 0.00 | 0.00 | 0.00 | 9 | 1008.2 |
| 20260508031551 | 66 | 259 | 2.0 | 7.0 | 0.00 | 0.00 | 0.00 | 8 | 1008.0 |
| 20260508030049 | 67 | 288 | 1.0 | 4.0 | 0.00 | 0.00 | 0.00 | 7 | 1007.7 |
| 20260508024534 | 68 | 259 | 1.0 | 6.0 | 0.00 | 0.00 | 0.00 | 7 | 1007.4 |
| 20260508023025 | 70 | 265 | 2.0 | 8.0 | 0.00 | 0.00 | 0.00 | 6 | 1007.2 |
| 20260508021518 | 72 | 226 | 4.0 | 8.0 | 0.00 | 0.00 | 0.00 | 6 | 1006.9 |
| 20260508020012 | 73 | 261 | 4.0 | 11.0 | 0.00 | 0.00 | 0.00 | 5 | 1006.8 |
| 20260508014510 | 75 | 248 | 4.0 | 10.0 | 0.00 | 0.00 | 0.00 | 5 | 1006.6 |
| 20260508013002 | 78 | 243 | 2.0 | 8.0 | 0.00 | 0.00 | 0.00 | 4 | 1006.6 |
| 20260508011556 | 79 | 269 | 2.0 | 8.0 | 0.00 | 0.00 | 0.00 | 3 | 1006.7 |
| 20260508010050 | 79 | 275 | 1.0 | 7.0 | 0.00 | 0.00 | 0.00 | 3 | 1006.6 |
| 20260508004545 | 79 | 297 | 1.0 | 10.0 | 0.00 | 0.00 | 0.00 | 3 | 1006.4 |
| 20260508003039 | 79 | 278 | 3.0 | 6.0 | 0.00 | 0.00 | 0.00 | 3 | 1006.4 |
| 20260508001533 | 80 | 284 | 0.0 | 2.0 | 0.00 | 0.00 | 0.00 | 3 | 1006.6 |
| 20260508000026 | 79 | 335 | 2.0 | 8.0 | 0.00 | 0.00 | 0.00 | 4 | 1006.7 |
| 20260507234524 | 79 | 359 | 3.0 | 11.0 | 0.00 | 0.00 | 0.00 | 4 | 1006.9 |
| 20260507233015 | 79 | 352 | 3.0 | 8.0 | 0.00 | 0.00 | 0.00 | 4 | 1006.9 |
| 20260507231515 | 80 | 291 | 1.0 | 7.0 | 0.00 | 0.00 | 0.00 | 4 | 1006.9 |
| 20260507230002 | 79 | 267 | 3.0 | 9.0 | 0.00 | 0.00 | 0.00 | 5 | 1006.9 |
| 20260507224601 | 80 | 284 | 1.0 | 8.0 | 0.00 | 0.00 | 0.00 | 5 | 1007.2 |
| 20260507223057 | 79 | 235 | 1.0 | 12.0 | 0.00 | 0.00 | 0.00 | 5 | 1007.5 |
| 20260507221553 | 80 | 323 | 2.0 | 8.0 | 0.00 | 0.00 | 0.00 | 6 | 1007.6 |
| 20260507220049 | 80 | 226 | 1.0 | 9.0 | 0.00 | 0.00 | 0.00 | 6 | 1008.0 |
| 20260507214549 | 79 | 294 | 2.0 | 9.0 | 0.00 | 0.00 | 0.00 | 7 | 1008.2 |
| 20260507213047 | 78 | 300 | 1.0 | 6.0 | 0.00 | 0.00 | 0.00 | 8 | 1008.4 |
| 20260507211541 | 77 | 84 | 4.0 | 12.0 | 0.00 | 0.00 | 0.00 | 8 | 1008.7 |
| 20260507210038 | 78 | 41 | 4.0 | 10.0 | 0.00 | 0.00 | 0.00 | 9 | 1008.7 |
| 20260507204533 | 77 | 29 | 2.0 | 7.0 | 0.00 | 0.00 | 0.00 | 9 | 1008.9 |
| 20260507203028 | 77 | 229 | 2.0 | 8.0 | 0.00 | 0.00 | 0.00 | 10 | 1009.2 |
| 20260507201531 | 77 | 332 | 2.0 | 7.0 | 0.00 | 0.00 | 0.00 | 11 | 1009.3 |
| 20260507200023 | 77 | 2 | 3.0 | 7.0 | 0.00 | 0.00 | 0.00 | 11 | 1009.4 |
| 20260507194517 | 76 | 282 | 4.0 | 7.0 | 0.00 | 0.00 | 0.00 | 12 | 1009.9 |
| 20260507193011 | 75 | 52 | 3.0 | 6.0 | 0.00 | 0.00 | 0.00 | 12 | 1010.2 |
| 20260507191508 | 75 | 82 | 4.0 | 13.0 | 0.00 | 0.00 | 0.00 | 13 | 1010.5 |
| 20260507190006 | 74 | 321 | 3.0 | 10.0 | 0.00 | 0.00 | 0.00 | 14 | 1010.6 |
| 20260507184608 | 73 | 344 | 4.0 | 8.0 | 0.00 | 0.00 | 0.00 | 15 | 1010.8 |
| 20260507183104 | 73 | 53 | 4.0 | 10.0 | 0.00 | 0.00 | 0.00 | 16 | 1010.9 |
| 20260507181555 | 73 | 86 | 0.0 | 9.0 | 0.00 | 0.00 | 0.00 | 17 | 1011.1 |
| 20260507180051 | 72 | 43 | 2.0 | 6.0 | 0.00 | 0.00 | 0.00 | 18 | 1011.4 |
| 20260507174548 | 71 | 26 | 4.0 | 8.0 | 0.00 | 0.00 | 0.00 | 19 | 1011.5 |
| 20260507173045 | 69 | 51 | 4.0 | 9.0 | 0.00 | 0.00 | 0.00 | 20 | 1011.9 |
| 20260507171548 | 68 | 50 | 2.0 | 8.0 | 0.00 | 0.00 | 0.00 | 21 | 1011.9 |
| 20260507170036 | 67 | 34 | 1.0 | 7.0 | 0.00 | 0.00 | 0.00 | 22 | 1011.9 |
| 20260507164536 | 66 | 72 | 4.0 | 7.0 | 0.00 | 0.00 | 0.00 | 23 | 1012.0 |
| 20260507163031 | 66 | 90 | 4.0 | 8.0 | 0.00 | 0.00 | 0.00 | 25 | 1012.1 |
| 20260507161525 | 65 | 51 | 2.0 | 7.0 | 0.00 | 0.00 | 0.00 | 26 | 1012.3 |
| 20260507160030 | 64 | 60 | 2.0 | 6.0 | 0.00 | 0.00 | 0.00 | 28 | 1012.5 |
| 20260507154519 | 63 | 131 | 1.0 | 5.0 | 0.00 | 0.00 | 0.00 | 30 | 1012.5 |
| 20260507153014 | 62 | 148 | 0.0 | 4.0 | 0.00 | 0.00 | 0.00 | 31 | 1012.8 |
| 20260507151508 | 60 | 142 | 1.0 | 5.0 | 0.00 | 0.00 | 0.00 | 32 | 1012.9 |
| 20260507150005 | 58 | 49 | 1.0 | 5.0 | 0.00 | 0.00 | 0.00 | 33 | 1013.0 |
| 20260507144605 | 57 | 34 | 2.0 | 6.0 | 0.00 | 0.00 | 0.00 | 34 | 1013.2 |
| 20260507143110 | 56 | 88 | 2.0 | 6.0 | 0.00 | 0.00 | 0.00 | 35 | 1013.1 |
| 20260507141613 | 56 | 70 | 2.0 | 6.0 | 0.00 | 0.00 | 0.00 | 36 | 1013.3 |
| 20260507140054 | 55 | 32 | 2.0 | 7.0 | 0.00 | 0.00 | 0.00 | 36 | 1013.2 |
| 20260507134554 | 54 | 55 | 1.0 | 5.0 | 0.00 | 0.00 | 0.00 | 37 | 1013.1 |